Weather History for Medford, OR

Change the Weather History Date:

Tuesday, May 21, 2013

  Actual Average Record
Temperature  
Mean Temperature 52 °F 61 °F  
Max Temperature 64 °F 75 °F 96 °F (2001)
Min Temperature 40 °F 47 °F 30 °F (1918)
Degree Days  
Heating Degree Days 13 5  
Month to date heating degree days 57 152  
Since 1 July heating degree days 3928 4151  
Cooling Degree Days 0 1  
Month to date cooling degree days 33 20  
Year to date cooling degree days 35 23  
Growing Degree Days 2 (Base 50)    
Moisture  
Dew Point 37 °F    
Average Humidity 56    
Maximum Humidity 79    
Minimum Humidity 33    
Precipitation  
Precipitation 0.05 in 0.04 in 0.80 in (1996)
Month to date precipitation 0.27 0.90  
Year to date precipitation 3.32 8.43  
Snow  
Snow 0.00 in 0.00 in - ()
Month to date snowfall 0.0 0.0  
Since 1 July snowfall 1.7 4.1  
Snow Depth 0.00 in    
Sea Level Pressure  
Sea Level Pressure 29.96 in    
Wind  
Wind Speed 8 mph (West)    
Max Wind Speed 25 mph    
Max Gust Speed 33 mph    
Visibility 10 miles    
Events Rain    
T = Trace of Precipitation, MM = Missing Value Source: NWS Daily Summary

Daily Weather History Graph

Daily Weather History Graph

Search for Another Location

Airport:

Trip Planner

Search our weather history database for the weather conditions in past years. The results will help you decide how hot, cold, wet, or windy it might be!

Date:

Astronomy

May. 21, 2013 Rise Set
Actual Time 5:44 AM PDT 8:32 PM PDT
Civil Twilight 5:11 AM PDT 9:05 PM PDT
Nautical Twilight 4:29 AM PDT 9:47 PM PDT
Astronomical Twilight 3:42 AM PDT 10:35 PM PDT
Moon 4:48 PM PDT (5/21) 3:19 AM PDT (5/21)
Length of Visible Light 15h 54m
Length of Day
14h 48m
Waxing Gibbous, 85% of the Moon is Illuminated
May 21
Waxing Gibbous
May 24
Full
May 31
Last Quarter
Jun 8
New
Jun 16
First Quarter

Hourly Weather History & Observations

Time (PDT) Temp. Windchill Dew Point Humidity Pressure Visibility Wind Dir Wind Speed Gust Speed Precip Events Conditions
12:53 AM 62.1 °F - 34.0 °F 35% 29.91 in 10.0 mi NW 4.6 mph - N/A   Clear
1:53 AM 60.1 °F - 33.1 °F 36% 29.89 in 10.0 mi NNW 3.5 mph - N/A   Clear
2:53 AM 57.9 °F - 35.1 °F 42% 29.87 in 10.0 mi Calm Calm - N/A   Overcast
3:53 AM 59.0 °F - 30.0 °F 33% 29.85 in 10.0 mi WNW 6.9 mph - N/A   Overcast
4:53 AM 55.0 °F - 33.1 °F 43% 29.84 in 10.0 mi SSE 4.6 mph - N/A   Partly Cloudy
5:53 AM 53.1 °F - 33.1 °F 47% 29.84 in 10.0 mi Calm Calm - N/A   Scattered Clouds
6:53 AM 53.1 °F - 33.1 °F 47% 29.85 in 10.0 mi Calm Calm - N/A   Scattered Clouds
7:53 AM 55.9 °F - 37.9 °F 51% 29.87 in 10.0 mi NW 8.1 mph - N/A   Scattered Clouds
8:53 AM 59.0 °F - 36.0 °F 42% 29.87 in 10.0 mi SW 9.2 mph - N/A   Scattered Clouds
9:53 AM 59.0 °F - 32.0 °F 36% 29.88 in 10.0 mi SW 15.0 mph 19.6 mph 0.01 in   Overcast
10:53 AM 59.0 °F - 34.0 °F 39% 29.88 in 10.0 mi SSW 11.5 mph - N/A   Overcast
11:53 AM 57.0 °F - 39.9 °F 53% 29.89 in 10.0 mi WSW 11.5 mph - 0.00 in   Overcast
12:53 PM 59.0 °F - 42.1 °F 53% 29.90 in 10.0 mi SW 10.4 mph 24.2 mph 0.00 in   Mostly Cloudy
1:28 PM 51.8 °F - 44.6 °F 76% 29.96 in 2.5 mi WNW 23.0 mph 33.4 mph 0.01 in Rain Heavy Rain
1:39 PM 51.8 °F - 42.8 °F 71% 29.97 in 10.0 mi WNW 19.6 mph 26.5 mph 0.03 in Rain Light Rain
1:53 PM 50.0 °F - 43.0 °F 77% 29.99 in 10.0 mi WNW 12.7 mph 27.6 mph 0.03 in Rain Light Rain
2:53 PM 51.1 °F - 43.0 °F 74% 30.01 in 10.0 mi WNW 13.8 mph 21.9 mph 0.01 in Rain Light Rain
3:53 PM 52.0 °F - 39.9 °F 63% 30.01 in 10.0 mi WNW 8.1 mph - 0.00 in   Overcast
4:53 PM 53.1 °F - 39.0 °F 59% 30.02 in 10.0 mi West 13.8 mph 18.4 mph 0.00 in   Partly Cloudy
5:53 PM 51.1 °F - 37.0 °F 59% 30.04 in 10.0 mi West 12.7 mph - 0.00 in   Mostly Cloudy
6:53 PM 48.0 °F - 34.0 °F 58% 30.06 in 10.0 mi NW 19.6 mph 23.0 mph 0.01 in   Mostly Cloudy
7:09 PM 44.6 °F 39.2 °F 37.4 °F 76% 30.06 in 8.0 mi NW 10.4 mph 20.7 mph 0.00 in Rain Light Rain
7:53 PM 44.1 °F 39.0 °F 37.0 °F 76% 30.08 in 8.0 mi WNW 9.2 mph - 0.01 in Rain Light Rain
8:53 PM 44.1 °F 41.5 °F 36.0 °F 73% 30.09 in 10.0 mi WSW 4.6 mph - 0.00 in   Mostly Cloudy
9:53 PM 42.1 °F - 35.1 °F 76% 30.11 in 10.0 mi Calm Calm - 0.00 in   Mostly Cloudy
10:53 PM 43.0 °F 40.3 °F 34.0 °F 71% 30.11 in 10.0 mi WSW 4.6 mph - N/A   Mostly Cloudy
11:53 PM 41.0 °F - 35.1 °F 79% 30.12 in 10.0 mi Calm Calm - N/A   Clear